Weather History for Tracy, MN

Change the Weather History Date:

Saturday, December 15, 2012

  Actual Average (KMML) Record (KMML)
Temperature  
Mean Temperature 28 °F -  
Max Temperature 35 °F 25 °F 52 °F (1960)
Min Temperature 21 °F 8 °F -15 °F (1951)
Degree Days  
Heating Degree Days 36    
Moisture  
Dew Point 29 °F    
Average Humidity 95    
Maximum Humidity 99    
Minimum Humidity 85    
Precipitation  
Precipitation 0.26 in - - ()
Sea Level Pressure  
Sea Level Pressure 29.57 in    
Wind  
Wind Speed 6 mph (NW)    
Max Wind Speed 23 mph    
Max Gust Speed 28 mph    
Visibility 2 miles    
Events Fog , Snow    
Averages and records for this station are not official NWS values.
T = Trace of Precipitation, MM = Missing Value Source: NWS Daily Summary

Daily Weather History Graph

Daily Weather History Graph

Search for Another Location

Airport:

Trip Planner

Search our weather history database for the weather conditions in past years. The results will help you decide how hot, cold, wet, or windy it might be!

Date:

Astronomy

Dec. 15, 2012 Rise Set
Actual Time 7:51 AM CST 4:44 PM CST
Civil Twilight 7:18 AM CST 5:17 PM CST
Nautical Twilight 6:41 AM CST 5:54 PM CST
Astronomical Twilight 6:06 AM CST 6:29 PM CST
Moon 9:41 AM CST (12/15) 7:54 PM CST (12/15)
Length of Visible Light 9h 59m
Length of Day
8h 52m
Waxing Crescent, 8% of the Moon is Illuminated
Dec 15
Waxing Crescent
Dec 19
First Quarter
Dec 28
Full
Jan 4
Last Quarter
Jan 11
New

Hourly Weather History & Observations

Time (CST) Temp. Windchill Dew Point Humidity Pressure Visibility Wind Dir Wind Speed Gust Speed Precip Events Conditions
12:16 AM 35.4 °F 30.5 °F 31.5 °F 85% 29.65 in 10.0 mi SSE 5.8 mph - N/A   Overcast
12:35 AM 34.5 °F - 31.1 °F 87% 29.64 in 10.0 mi Calm Calm - N/A   Overcast
12:56 AM 32.0 °F 28.7 °F 29.3 °F 90% 29.63 in 7.0 mi NNE 3.5 mph - N/A   Mostly Cloudy
1:16 AM 30.0 °F - 27.5 °F 90% 29.62 in 5.0 mi Calm Calm - N/A   Overcast
1:35 AM 29.3 °F - 27.3 °F 92% 29.62 in 5.0 mi Calm Calm - N/A   Overcast
1:55 AM 29.8 °F - 27.5 °F 91% 29.62 in 5.0 mi Calm Calm - N/A   Overcast
2:16 AM 30.0 °F - 27.7 °F 91% 29.62 in 5.0 mi Calm Calm - N/A   Overcast
2:36 AM 30.2 °F - 28.0 °F 92% 29.62 in 5.0 mi Calm Calm - N/A   Overcast
2:56 AM 31.1 °F - 28.4 °F 90% 29.62 in 5.0 mi Calm Calm - N/A   Overcast
3:15 AM 31.5 °F - 29.5 °F 92% 29.62 in 3.0 mi Calm Calm - 0.01 in   Overcast
3:36 AM 31.6 °F - 30.0 °F 94% 29.60 in 3.0 mi Calm Calm - 0.02 in   Unknown
3:56 AM 31.6 °F - 30.2 °F 94% 29.59 in 3.0 mi Calm Calm - 0.02 in   Overcast
4:16 AM 32.0 °F - 30.7 °F 95% 29.58 in 3.0 mi Calm Calm - N/A   Overcast
4:36 AM 32.4 °F - 31.5 °F 96% 29.57 in 3.0 mi Calm Calm - 0.03 in Snow Light Snow
4:55 AM 32.0 °F - 31.3 °F 97% 29.56 in 2.5 mi Calm Calm - 0.07 in   Unknown
5:15 AM 32.0 °F 28.7 °F 31.1 °F 96% 29.56 in 1.8 mi NE 3.5 mph - 0.01 in   Unknown
5:36 AM 32.0 °F - 31.6 °F 99% 29.55 in 2.0 mi Calm Calm - 0.02 in   Unknown
5:56 AM 32.0 °F - 31.1 °F 96% 29.53 in 1.0 mi Calm Calm - 0.06 in   Mostly Cloudy
6:16 AM 32.0 °F - 31.3 °F 97% 29.53 in 1.0 mi Calm Calm - 0.01 in   Overcast
6:36 AM 32.0 °F - 31.6 °F 99% 29.53 in 0.8 mi Calm Calm - 0.03 in   Overcast
6:55 AM 32.0 °F - 31.8 °F 99% 29.53 in 0.5 mi Calm Calm - 0.04 in   Overcast
7:16 AM 32.2 °F - 31.8 °F 99% 29.53 in 0.5 mi Calm Calm - 0.01 in   Overcast
7:36 AM 32.2 °F - 32.0 °F 99% 29.52 in 0.5 mi Calm Calm - 0.02 in   Overcast
7:55 AM 32.2 °F - 32.0 °F 99% 29.52 in 0.5 mi Calm Calm - 0.03 in   Overcast
8:16 AM 32.0 °F - 31.8 °F 99% 29.52 in 0.2 mi Calm Calm - 0.01 in   Overcast
8:36 AM 32.0 °F - 31.8 °F 99% 29.52 in 0.2 mi Calm Calm - 0.02 in   Overcast
8:55 AM 32.2 °F - 32.0 °F 99% 29.52 in 0.2 mi Calm Calm - 0.03 in   Overcast
9:16 AM 32.0 °F 26.4 °F 31.5 °F 98% 29.52 in 0.2 mi NNW 5.8 mph - N/A   Overcast
9:36 AM 31.8 °F 24.6 °F 31.1 °F 97% 29.52 in 0.2 mi NNW 8.1 mph - 0.01 in   Overcast
9:56 AM 31.5 °F 23.5 °F 30.9 °F 98% 29.52 in 0.2 mi NNW 9.2 mph - 0.01 in   Overcast
10:15 AM 31.3 °F 23.9 °F 30.7 °F 98% 29.53 in 0.2 mi NNW 8.1 mph - N/A   Overcast
10:35 AM 31.5 °F 23.5 °F 30.7 °F 97% 29.53 in 0.2 mi NW 9.2 mph - N/A Fog Light Freezing Fog
10:56 AM 31.5 °F 23.5 °F 30.9 °F 98% 29.53 in 0.2 mi NW 9.2 mph - N/A Fog Light Freezing Fog
11:16 AM 31.6 °F 24.4 °F 30.9 °F 97% 29.52 in 0.2 mi NW 8.1 mph - N/A Fog Light Freezing Fog
11:36 AM 31.6 °F 23.7 °F 30.9 °F 97% 29.52 in 0.2 mi NW 9.2 mph - N/A Fog Light Freezing Fog
11:55 AM 31.6 °F 23.1 °F 31.1 °F 98% 29.52 in 0.2 mi NW 10.4 mph - N/A Fog Light Freezing Fog
12:16 PM 32.0 °F 23.6 °F 31.1 °F 96% 29.51 in 0.2 mi NW 10.4 mph - N/A Fog Fog
12:35 PM 32.0 °F 24.8 °F 31.5 °F 98% 29.50 in 0.2 mi NW 8.1 mph - N/A Fog Fog
12:55 PM 32.0 °F 24.2 °F 31.6 °F 99% 29.50 in 0.2 mi NW 9.2 mph - N/A Fog Fog
1:16 PM 32.0 °F 24.2 °F 31.8 °F 99% 29.49 in 0.2 mi NW 9.2 mph - N/A Fog Fog
1:36 PM 32.0 °F 23.6 °F 31.6 °F 99% 29.49 in 0.2 mi NW 10.4 mph - N/A Fog Fog
1:55 PM 32.0 °F 24.8 °F 31.6 °F 99% 29.49 in 0.2 mi NW 8.1 mph - N/A Fog Fog
2:16 PM 32.0 °F 23.6 °F 31.5 °F 98% 29.50 in 0.8 mi NW 10.4 mph - N/A Snow Light Snow
2:36 PM 32.0 °F 24.2 °F 31.5 °F 98% 29.50 in 1.0 mi NW 9.2 mph - N/A Snow Light Snow
2:55 PM 32.0 °F 23.0 °F 31.3 °F 97% 29.50 in 1.5 mi NW 11.5 mph - N/A Snow Light Snow
3:16 PM 32.0 °F 22.5 °F 31.1 °F 96% 29.51 in 1.8 mi NW 12.7 mph - N/A Snow Light Snow
3:36 PM 32.0 °F 22.5 °F 31.1 °F 96% 29.52 in 1.5 mi NW 12.7 mph - N/A Snow Light Snow
3:56 PM 31.8 °F 22.8 °F 31.1 °F 97% 29.53 in 1.0 mi NW 11.5 mph - N/A Snow Light Snow
4:15 PM 31.8 °F 22.3 °F 31.1 °F 97% 29.55 in 0.8 mi NNW 12.7 mph - N/A Snow Snow
4:36 PM 31.8 °F 21.8 °F 31.1 °F 97% 29.55 in 0.5 mi NNW 13.8 mph - N/A Snow Snow
4:56 PM 31.8 °F 22.3 °F 31.1 °F 97% 29.56 in 0.8 mi NNW 12.7 mph - N/A Snow Light Snow
5:15 PM 31.6 °F 21.6 °F 30.9 °F 97% 29.56 in 1.5 mi NNW 13.8 mph - N/A Snow Light Snow
5:36 PM 31.1 °F 20.5 °F 30.4 °F 97% 29.57 in 2.5 mi NNW 15.0 mph - N/A Snow Light Snow
5:56 PM 30.6 °F 19.0 °F 29.7 °F 96% 29.58 in 2.0 mi NW 17.3 mph 21.9 mph N/A Snow Light Snow
6:15 PM 29.7 °F 18.6 °F 28.8 °F 96% 29.59 in 1.8 mi NW 15.0 mph - N/A Snow Light Snow
6:36 PM 29.1 °F 16.7 °F 28.0 °F 96% 29.60 in 2.0 mi NW 18.4 mph - N/A Snow Light Snow
6:56 PM 28.9 °F 16.9 °F 27.7 °F 95% 29.60 in 2.0 mi NW 17.3 mph 20.7 mph N/A Snow Light Snow
7:15 PM 28.4 °F 15.8 °F 27.1 °F 95% 29.61 in 1.8 mi NW 18.4 mph - N/A Snow Light Snow
7:36 PM 28.4 °F 17.0 °F 27.1 °F 95% 29.62 in 1.5 mi NW 15.0 mph - N/A Snow Light Snow
7:56 PM 28.2 °F 16.3 °F 26.6 °F 94% 29.62 in 1.8 mi NW 16.1 mph - N/A Snow Light Snow
8:16 PM 28.0 °F 15.3 °F 26.6 °F 94% 29.62 in 2.0 mi NW 18.4 mph - N/A Snow Light Snow
8:35 PM 28.0 °F 15.7 °F 26.6 °F 94% 29.63 in 2.0 mi NW 17.3 mph - N/A Snow Light Snow
8:56 PM 27.9 °F 15.1 °F 26.2 °F 94% 29.63 in 2.5 mi NW 18.4 mph - N/A Snow Light Snow
9:15 PM 27.1 °F 13.4 °F 25.3 °F 93% 29.63 in 2.5 mi NW 20.7 mph 24.2 mph N/A Snow Light Snow
9:36 PM 26.6 °F 12.0 °F 24.8 °F 93% 29.64 in 4.0 mi NW 23.0 mph 26.5 mph N/A   Overcast
9:56 PM 26.2 °F 12.6 °F 23.9 °F 91% 29.63 in 5.0 mi NW 19.6 mph - N/A   Overcast
10:16 PM 25.3 °F 11.0 °F 22.8 °F 90% 29.64 in 7.0 mi NW 20.7 mph 26.5 mph N/A   Overcast
10:35 PM 24.4 °F 10.6 °F 21.2 °F 87% 29.63 in 7.0 mi NW 18.4 mph 24.2 mph N/A   Overcast
10:56 PM 23.9 °F 9.5 °F 21.0 °F 89% 29.64 in 7.0 mi NW 19.6 mph - N/A   Mostly Cloudy
11:16 PM 23.7 °F 9.7 °F 20.3 °F 87% 29.64 in 7.0 mi NW 18.4 mph 27.6 mph N/A   Overcast
11:35 PM 22.1 °F 7.6 °F 19.0 °F 88% 29.65 in 10.0 mi NW 18.4 mph 25.3 mph N/A   Scattered Clouds
11:56 PM 21.2 °F 6.0 °F 18.3 °F 89% 29.66 in 7.0 mi NW 19.6 mph 25.3 mph N/A   Clear